Regional Weather Roundup
Issued by NWS

Home | Current Version | Previous Version | Text Only | Print | Product List | Glossary Off
Versions: 1 2 3 4 5 6 7 8 9 10 11 12 13 14 15 16 17 18 19 20 21 22 23 24 25 26 27 28 29 30 31 32 33 34 35 36 37 38 39 40 41 42 43 44 45 46 47 48 49 50

000
ASUS45 KTFX 270110
RWRMT
MONTANA REGIONAL WEATHER ROUNDUP
NATIONAL WEATHER SERVICE GREAT FALLS MT
700 PM MDT MON JUN 26 2017

NOTE: "FAIR" INDICATES FEW OR NO CLOUDS BELOW 12000 FEET WITH NO
SIGNIFICANT WEATHER AND/OR OBSTRUCTIONS TO VISIBILITY.

MTZ001>007-043-270200-
WEST OF THE DIVIDE

CITY           SKY/WX    TMP DP  RH WIND       PRES   REMARKS
KALISPELL      SUNNY     81  50  33 E6        29.78F
MISSOULA       PTSUNNY   87  48  25 N17       29.76S
BUTTE          CLOUDY    86  32  14 SW6       29.92F
MULLAN PASS    CLOUDY    70  43  37 NW6       30.02F
ANACONDA         N/A     88  34  14 S3        29.87S
DEER LODGE       N/A     88  36  15 W12G17    29.85F
EUREKA           N/A     86  48  26 CALM      29.74F
HAMILTON         N/A     90  41  18 N5        29.77S
$$

MTZ008-052>055-270200-
SOUTHWEST MONTANA

CITY           SKY/WX    TMP DP  RH WIND       PRES   REMARKS
BOZEMAN        SUNNY     92  32  12 VRB5      29.85F
DILLON         CLOUDY    83  36  18 S23G31    29.90F
W YELLOWSTONE  CLOUDY    73  39  29 CALM      30.11F
ENNIS          SUNNY     82  39  21 S15G23    30.00F
THREE FORKS      N/A     86  43  22 S9        29.85S
$$

MTZ009-010-012-014-046-048-049-054-270200-
EAST SLOPES AND CENTRAL MONTANA

CITY           SKY/WX    TMP DP  RH WIND       PRES   REMARKS
CUT BANK       PTSUNNY   78  45  30 NW17      29.78F
GREAT FALLS    SUNNY     88  41  19 W8        29.75F
MALMSTROM AFB  CLOUDY    88  45  22 N12G20    29.74S
HELENA         SUNNY     95  33  11 NW10      29.77F HX  90
CHOTEAU          N/A     86  41  20 W9G17     29.81R
$$

MTZ011-013-016-021-045-047-050-051-270200-
NORTH CENTRAL MONTANA

CITY           SKY/WX    TMP DP  RH WIND       PRES   REMARKS
HAVRE          TSTM      73  54  51 SW29G38   29.79R
LEWISTOWN      MOSUNNY   83  46  27 S12       29.82F
N BAR RANCH      N/A     84  37  18 SW24G32   29.89F
CHINOOK          N/A     91  37  15 S15G23    29.70R
FORT BENTON      N/A     88  48  25 MISG      29.71F
$$

MTZ017>020-022>027-061-062-270200-
NORTHEAST MONTANA

CITY           SKY/WX    TMP DP  RH WIND       PRES   REMARKS
GLASGOW        MOSUNNY   87  32  14 SE20      29.78F
JORDAN           N/A     90  32  12 S17       29.79F
SIDNEY         MOSUNNY   84  38  19 S15       29.88F
WOLF POINT     CLOUDY    86  37  17 SE10G17   29.83F
MALTA          SUNNY     88  37  16 SE12G20   29.71F
PLENTYWOOD       N/A     79  36  21 SE12      29.89F
POPLAR           N/A     84  36  17 SE14      29.84F
$$

MTZ028>42-056>058-270200-
SOUTHCENTRAL AND SOUTHEAST MONTANA

CITY           SKY/WX    TMP DP  RH WIND       PRES   REMARKS
BAKER          SUNNY     80  34  19 SE21G26   29.95F
BILLINGS       PTSUNNY   88  38  17 S12G24    29.85F
LIVINGSTON     CLOUDY    86  40  19 S23G39    29.87F
MILES CITY     SUNNY     89  32  13 SE15      29.83F
BIG TIMBER     SUNNY     86  39  19 S12G18    29.89F
FORSYTH          N/A     90  36  14 SE8       29.81F
ROUNDUP          N/A     89  38  16 SE10      29.77S
$$

REGIONAL REPORTS...DAKOTAS

CITY           SKY/WX    TMP DP  RH WIND       PRES   REMARKS
WILLISTON      MOSUNNY   82  41  23 SE9       29.91F
MINOT          SUNNY     76  40  27 SE10      29.99F
DICKINSON      MOSUNNY   75  33  21 S17       29.97F
BEACH            N/A     77  36  22 S14G22    29.98F
CROSBY           N/A     75  46  35 SE12      29.93F
TIOGA            N/A     75  41  29 SE15G22   29.97F
WATFORD CITY     N/A     77  43  29 SE15G21   29.92F
BISMARCK       SUNNY     74  41  30 SE15      30.04F
GRAND FORKS    MOSUNNY   73  42  32 W7        30.06
FARGO          SUNNY     72  38  29 W9        30.08F
BUFFALO SD       N/A     79  37  22 SE23      29.94F
RAPID CITY     SUNNY     78  39  24 SE14G22   30.04F
$$

REGIONAL REPORTS...WYOMING/IDAHO/WASHINGTON

CITY           SKY/WX    TMP DP  RH WIND       PRES   REMARKS
GILLETTE       SUNNY     84  38  19 SE20G28   29.98F
SHERIDAN       SUNNY     87  44  22 SE7       29.90F
BUFFALO WY     SUNNY     85  39  19 E8        29.99F
CODY           CLOUDY    86  28  12 E18       29.94F
YELLOWSTONE LA   N/A     73  28  18 VRB7      30.22F
IDAHO FALLS    CLOUDY    85  55  35 N5        29.93F
SALMON         MOSUNNY   84  48  28 SW3       29.80S
BOISE          CLOUDY    82  65  56 NW3       29.81S
SPOKANE        CLOUDY    88  51  28 S8        29.76F
$$

REGIONAL REPORTS...ALBERTA

CITY           SKY/WX    TMP DP  RH WIND       PRES   REMARKS
EDMONTON       SUNNY     81  57  44 E8        29.55F
CALGARY        PTSUNNY   84  39  20 W10G18    29.67S
LETHBRIDGE     PTSUNNY   77  50  38 SW17G25   29.70F
MEDICINE HAT   PTSUNNY   88  55  33 SW12      29.63F
WATERTON GATE    N/A     75  45  33 SW17G26     N/A
MILK RIVER       N/A     81  50  34 W15         N/A
ONEFOUR          N/A     84  43  23 SW7         N/A
$$

REGIONAL REPORTS...SASKATCHEWAN

CITY           SKY/WX    TMP DP  RH WIND       PRES   REMARKS
SWIFT CURRENT  SUNNY     77  50  38 S10       29.72F
REGINA         PTSUNNY   77  45  31 SE18G28   29.83F
SASKATOON      PTSUNNY   79  46  31 SE16G24   29.75F
CYPRESS HILLS    N/A     81  39  22 S8          N/A
VAL MARIE        N/A     86  30  13 S23G29      N/A
ROCKGLEN         N/A     79  36  21 S16G25      N/A
ASSINIBOIA       N/A     82  54  36 SW6         N/A
$$



USA.gov is the U.S. government's official web portal to all federal, state and local government web resources and services.